Regional Weather Roundup
Issued by NWS

Home | Current Version | Previous Version | Text Only | Print | Product List | Glossary Off
Versions: 1 2 3 4 5 6 7 8 9 10 11 12 13 14 15 16 17 18 19 20 21 22 23 24 25 26 27 28 29 30 31 32 33 34 35 36 37 38 39 40 41 42 43 44 45 46 47 48 49 50

000
ASUS43 KMKX 161600
RWRWI

WISCONSIN REGIONAL WEATHER ROUNDUP
NATIONAL WEATHER SERVICE MILWAUKEE/SULLIVAN WI
1000 AM CST SAT DEC 16 2017

NOTE: "FAIR" INDICATES FEW OR NO CLOUDS BELOW 12,000 FEET WITH NO
SIGNIFICANT WEATHER AND/OR OBSTRUCTIONS TO VISIBILITY.

WIZ001-002-006>008-014>016-023>028-161700-
NORTHWEST WISCONSIN

CITY           SKY/WX    TMP DP  RH WIND       PRES   REMARKS
SUPERIOR ARPT  CLOUDY    19   8  62 E6        29.94R WCI  11
ASHLAND        CLOUDY    15   8  73 NE3       29.97R
HAYWARD        CLOUDY    18   8  65 E7        29.90R WCI   9
SIREN          CLOUDY    20  15  79 E6        29.87R WCI  13
CUMBERLAND     CLOUDY    21  14  73 E9        29.85R WCI  11
RICE LAKE      CLOUDY    20  15  81 E9        29.88R WCI  10
CHETEK         CLOUDY    20  15  80 E7        29.87R WCI  11
LADYSMITH      CLOUDY    18  12  76 E10       29.89R WCI   6
EAU CLAIRE     NOT AVBL
MENOMONIE      CLOUDY    23  19  83 E9        29.86R WCI  13
NEW RICHMOND   CLOUDY    23  19  83 E9        29.85R WCI  13
OSCEOLA        CLOUDY    24  20  85 E5        29.88R WCI  18
$$

WIZ003>005-009-010-017-018-161700-
NORTH CENTRAL WISCONSIN

CITY           SKY/WX    TMP DP  RH WIND       PRES   REMARKS
MANITOWISH WTR CLOUDY    13   8  80 E6        29.90R WCI   4
ARBOR VITAE    CLOUDY    16  10  77 E6        29.90R WCI   7
WOODRUFF       CLOUDY    16  10  77 E6        29.90R WCI   7
RHINELANDER    CLOUDY    13   7  77 E8        29.90R WCI   2
EAGLE RIVER    CLOUDY    13   5  69 E6        29.89R WCI   4
LAND O LAKES   CLOUDY    15   7  69 E3        29.92R
PHILLIPS       CLOUDY    14   7  73 E8        29.87S WCI   3
TOMAHAWK       CLOUDY    15   8  72 E5        29.89S WCI   8
MEDFORD        CLOUDY    15  10  78 E7        29.87R WCI   5
MERRILL        CLOUDY    16   7  68 E7        29.90R WCI   6
$$

WIZ029-030-035-036-043>047-161700-
CENTRAL WISCONSIN

CITY           SKY/WX    TMP DP  RH WIND       PRES   REMARKS
WAUSAU         CLOUDY    16   7  67 E8        29.90R WCI   5
MOSINEE        CLOUDY    16  10  79 E12       29.90R WCI   3
MARSHFIELD     CLOUDY    17  12  80 E15       29.87R WCI   2
STEVENS POINT  CLOUDY    15  12  85 E10       29.91R WCI   3
WAUPACA        CLOUDY    21  16  79 NE7       29.95R WCI  12
WAUTOMA        CLOUDY    21  16  81 E10       29.92R WCI  10
WISC RAPIDS    CLOUDY    19  12  74 E12       29.91R WCI   7
CAMP DOUGLAS   CLOUDY    21  18  86 E10       29.87R WCI  10
$$

WIZ011>013-019>022-031-037>040-048>050-161700-
NORTHEAST WISCONSIN

CITY           SKY/WX    TMP DP  RH WIND       PRES   REMARKS
ANTIGO         CLOUDY    14   6  69 E7        29.90R WCI   4
SHAWANO        CLOUDY    18   9  68 NE5       29.96R WCI  11
OCONTO         CLOUDY    17  10  71 N6        29.98R WCI   9
STURGEON BAY   CLOUDY    23  15  71 NE6       29.98R WCI  16
GREEN BAY      CLOUDY    21  12  68 NE8       29.96R WCI  11
MANITOWOC      CLOUDY    23  21  92 N7        29.96R WCI  15
APPLETON       CLOUDY    21  14  73 NE12      29.92R WCI   9
CLINTONVILLE   NOT AVBL
OSHKOSH        CLOUDY    23  19  85 NE10      29.92R WCI  12
$$

WIZ032>034-041-042-053>061-161700-
SOUTHWEST WISCONSIN

CITY           SKY/WX    TMP DP  RH WIND       PRES   REMARKS
LA CROSSE      MOSUNNY   30  24  78 E9        29.85R WCI  22
SPARTA         CLOUDY    24  21  89 E10       29.87R WCI  13
VIROQUA        SUNNY     31  28  90 E3        29.79R
BOSCOBEL       SUNNY     38  26  62 NE3       29.85R
PRAIRIE DU CHI SUNNY     35  24  65 CALM      29.82R
PLATTEVILLE    SUNNY     35  27  73 S5        29.83R WCI  31
$$

WIZ056-057-062-063-064-067-068-161700-
SOUTH CENTRAL WISCONSIN

CITY           SKY/WX    TMP DP  RH WIND       PRES   REMARKS
REEDSBURG      CLOUDY    23  21  91 E8        29.87R WCI  14
BARABOO/DELLS  CLOUDY    23  21  91 NE9       29.87R WCI  13
LONE ROCK      MOSUNNY   35  28  75 E9        29.86R WCI  28
MINERAL POINT  MOSUNNY   36  28  75 CALM      29.81R
MADISON        PTSUNNY   36  25  64 E7        29.87R WCI  30
MIDDLETON      PTSUNNY   37  27  69 NE5       29.85R WCI  33
WATERTOWN      CLOUDY    32  32  99 E9        29.86R WCI  24
MONROE         SUNNY     34  27  75 SW3       29.83R
JANESVILLE     SUNNY     37  25  60 S3        29.86R
$$

WIZ051-052-058>065-066-070>072-161700-
SOUTHEAST WISCONSIN

CITY           SKY/WX    TMP DP  RH WIND       PRES   REMARKS
MILWAUKEE      PTSUNNY   38  29  70 CALM      29.88R
WAUKESHA       MOSUNNY   34  30  86 NE7       29.88R WCI  28
MILWAUKEE/TIMM CLOUDY    34  30  86 E8        29.89R WCI  27
RACINE         MOSUNNY   37  26  64 SW7       29.90R WCI  32
BURLINGTON     SUNNY     37  28  68 CALM      29.87R
KENOSHA        PTSUNNY   39  25  57 SW7       29.88R WCI  34
FOND DU LAC    CLOUDY    25  20  81 NE8       29.91R WCI  16
SHEBOYGAN      CLOUDY    29  27  92 E9        29.93R WCI  20
WEST BEND      CLOUDY    30  30 100 E8        29.89R WCI  23
JUNEAU         CLOUDY    28  26  91 NE8       29.89R WCI  20
$$

LSZ147-162-161700-
LAKE SUPERIOR

STATION/POSITION TIME  TEMP    WIND        PRES    WAVE
                       AIR SEA DIR/SP/G            HT/PER
                 (UTC) (F)     (DEG/KT/KT) (MB)    (FT/S)
DEVILS ISLAND    1500   22     120/ 13/ 16 1015.4R
SAXON HARBOR     1530   17                 1014.6R
$$

LMZ867-665-643>646-161700-
LAKE MICHIGAN

STATION/POSITION TIME  TEMP    WIND        PRES    WAVE
                       AIR SEA DIR/SP/G            HT/PER
                 (UTC) (F)     (DEG/KT/KT) (MB)    (FT/S)
NORTHPORT PIER   1540   24      20/  9/ 12 1015.2R
KEWAUNEE LAKESHO 1412   21     330/  3/  6 1012.7
SHEBOYGAN LAKESH 1500   30      70/ 14/ 16 1013.7R
PORT WASHINGTON  1540   33      80/ 14/ 16 1013.9R
MILWAUKEE LAKESH 1530   36      60/ 14/ 16   N/A
KENOSHA   LAKESH 1500   36      CALM  /  2 1011.9
$$

TC  - TEMPERATURE IN CELSIUS
VSB - VISIBILITY IN STATUTE MILES
WCI - WIND CHILL INDEX
HX  - HEAT INDEX





USA.gov is the U.S. government's official web portal to all federal, state and local government web resources and services.